Location: Shannon
(40.5500°S, 175.4167°E)
Time: 11:37:25
(UTC+00:00)

ARGOS Delta rocket - Pass Details

Date: 17 November 2025
Orbit: 630 x 827 km, 96.5° (Epoch: 09 December)

Event Time Altitude Azimuth Distance (km) Brightness Sun altitude
Exits shadow 13:27:20 63° 158° (SSE) 723 4.0 -27.2°
Drops below altitude 10° 13:31:14 10° 187° (S) 2,078 7.0 -26.9°
Sets 13:33:31 0° 188° (S) 3,016 8.0 -26.7°
